Theta_e
360 362 362 361 362 362 361 362 360 360 359 359 358 359 359 359 355 355 357 357 358 359 361 360 361 360 357 358 356 359 362 360 361 364 366 366 365 365 365 366 366 363 364 363 364 364 364 364 364 366 367 366 363 362 360 364 366 362 362 360 358 360 359 358 354 353 358 361 358 356 359 362 359 367 367 363 364 367 364 369 372 367 365 368 368
359 362 362 362 361 361 361 361 362 361 358 358 358 358 358 358 358 358 355 358 358 356 359 358 360 360 357 358 360 358 362 366 360 360 363 363 364 361 363 365 367 364 363 363 363 361 363 364 364 362 364 363 360 358 358 356 358 358 359 358 357 358 362 359 355 355 355 360 358 362 360 364 360 367 365 363 365 368 365 367 365 365 365 365 370
357 361 361 362 362 361 361 361 362 360 358 356 355 355 356 357 359 358 355 354 359 358 355 356 358 362 360 359 362 361 364 362 361 360 361 363 363 361 358 361 363 362 361 362 362 363 361 362 360 361 359 359 360 357 356 356 356 358 358 359 359 359 361 364 361 357 356 356 361 359 359 362 362 363 367 367 369 369 368 366 361 362 363 366 367
356 359 360 360 361 361 361 360 359 359 356 355 354 354 352 355 358 357 356 352 352 358 357 356 358 362 363 361 362 364 362 362 360 360 362 363 363 363 363 363 363 362 360 360 360 360 359 360 359 360 359 359 361 359 357 357 358 358 358 360 363 362 362 363 364 362 359 356 361 360 361 362 361 364 365 367 366 367 367 367 366 364 362 362 364
355 357 358 359 358 359 359 358 358 358 356 354 354 354 353 351 354 356 355 353 351 353 358 358 358 361 361 360 361 363 361 362 363 359 359 361 362 360 362 364 364 364 363 363 362 363 361 360 359 360 361 359 360 359 356 357 358 357 357 358 360 361 361 361 363 364 362 360 359 363 366 367 366 367 368 364 363 365 369 370 368 365 366 363 359
355 355 357 357 358 358 358 358 357 357 357 355 354 354 353 352 352 354 356 354 353 350 354 357 356 359 362 361 359 362 363 363 364 362 358 358 359 359 359 362 362 364 364 362 363 363 362 362 362 361 360 358 357 356 360 359 360 358 358 358 359 360 363 363 365 365 363 362 363 359 364 362 364 366 367 368 362 358 360 363 369 372 372 365 359
355 354 355 356 357 357 357 357 357 357 357 357 355 355 354 352 352 351 355 355 352 350 350 356 358 357 361 361 357 359 362 362 364 365 362 359 360 361 357 357 359 359 360 358 356 357 358 358 359 361 361 362 359 358 360 362 360 359 361 362 361 361 360 361 362 362 362 361 360 361 359 361 362 359 365 371 370 364 359 358 358 363 369 370 366
353 354 355 356 358 356 357 357 358 359 359 361 359 356 355 354 354 354 355 356 353 351 350 350 355 357 358 359 359 359 361 363 365 366 365 360 359 360 360 356 355 357 357 357 355 352 353 353 352 353 357 362 364 363 363 360 361 362 360 363 363 362 360 357 359 358 358 358 355 353 354 356 360 362 361 365 365 364 366 363 358 357 360 366 370
353 353 354 356 358 359 359 358 359 360 361 362 361 359 357 357 357 357 357 356 354 353 352 350 351 354 356 356 358 357 354 358 361 363 364 363 360 357 359 358 355 354 355 355 356 357 354 351 350 350 354 359 368 370 367 368 362 361 364 365 365 363 362 358 357 358 358 356 354 355 353 355 357 357 354 353 353 351 358 361 359 360 361 361 365
352 352 352 355 357 359 361 362 360 362 362 362 363 362 359 358 357 357 357 357 358 358 357 355 352 351 353 356 357 355 354 353 356 346 352 362 361 355 355 358 359 356 356 356 354 353 354 354 348 357 365 367 369 364 359 359 361 358 360 365 366 366 363 361 358 357 357 355 352 351 349 349 349 355 355 356 356 359 359 362 361 361 362 361 364
349 351 353 355 358 358 359 361 361 361 363 364 364 364 362 359 359 360 359 359 360 361 358 356 354 351 351 353 354 354 352 350 343 335 337 342 359 361 359 359 362 362 358 358 359 355 353 353 356 356 367 365 367 358 356 352 352 351 352 356 362 369 364 360 359 358 355 355 353 352 347 347 348 349 346 345 347 350 353 358 358 359 357 355 352
348 351 353 356 358 359 359 362 361 361 362 364 365 366 363 361 361 361 359 358 361 359 357 357 357 355 352 352 352 353 354 345 333 332 334 334 343 357 354 356 356 357 360 357 356 357 357 352 350 350 354 359 362 367 361 351 347 347 347 348 350 351 353 365 365 361 361 357 354 352 351 350 353 357 351 346 348 353 360 360 361 361 359 357 356
351 351 352 354 357 359 361 362 361 360 363 364 365 366 364 362 360 359 358 360 360 361 361 358 358 357 355 355 353 353 353 340 330 329 331 331 332 345 351 350 351 353 355 359 359 359 358 356 354 350 348 366 364 363 367 370 350 342 345 346 348 346 341 341 345 362 365 362 361 359 358 357 357 358 358 360 361 356 359 358 360 360 361 359 358
358 358 356 355 356 358 360 361 362 362 363 364 364 363 362 361 360 358 357 359 360 359 359 360 359 360 359 357 357 355 355 343 328 326 327 327 329 336 355 351 349 350 353 354 355 358 360 360 357 356 356 358 362 362 363 363 367 369 364 362 362 359 346 339 339 340 349 360 361 359 363 366 361 364 366 366 363 360 358 357 360 356 358 359 362
356 357 358 356 355 356 358 359 360 362 363 363 363 363 362 361 360 358 355 355 356 358 358 359 359 360 359 357 357 355 354 337 326 322 322 323 326 332 354 353 352 352 352 355 357 357 359 359 361 359 360 360 361 364 364 364 364 363 366 367 366 363 365 363 360 358 358 358 360 362 364 366 368 370 370 370 367 368 366 363 364 362 363 365 364
354 355 357 359 359 358 357 357 359 360 361 362 362 362 362 361 360 360 359 355 356 357 358 358 357 358 358 358 357 356 357 333 325 321 320 321 324 344 353 354 353 352 352 354 356 359 360 360 360 360 362 361 358 347 356 364 364 364 362 363 363 362 361 360 349 352 362 361 362 360 359 360 352 371 379 368 365 368 369 368 368 367 362 358 353
345 348 348 350 355 357 360 359 361 360 361 360 360 361 360 360 361 362 359 357 355 354 356 357 359 357 357 358 357 357 357 341 323 319 318 318 325 349 352 352 353 353 353 354 355 357 359 362 362 358 358 362 352 336 338 352 359 358 359 360 359 357 355 357 346 339 339 337 337 339 339 338 336 334 333 334 363 364 366 361 358 360 356 352 353
340 340 344 347 352 355 356 356 357 357 359 358 358 359 361 361 362 362 359 357 355 355 356 356 358 357 355 356 356 356 357 347 323 317 316 317 329 350 353 352 353 353 354 355 355 356 358 356 362 362 360 360 342 331 333 350 359 357 356 355 355 356 357 356 354 359 335 334 335 336 335 336 337 335 335 334 333 347 362 357 360 358 355 353 349
336 337 339 343 347 353 356 357 356 355 356 357 358 358 359 360 361 361 360 359 359 360 358 356 356 357 355 355 351 353 356 348 324 318 316 315 329 352 352 353 352 353 353 354 356 356 357 356 353 353 356 354 335 329 328 346 359 358 357 355 352 354 355 358 355 354 360 362 362 360 358 348 357 362 363 342 339 348 362 362 363 359 354 352 352
336 338 340 342 345 350 354 355 357 357 357 357 358 359 360 360 360 360 361 359 358 359 359 359 358 357 355 354 354 355 356 358 358 316 315 313 317 350 354 352 351 352 354 353 354 356 357 359 354 333 330 331 329 324 323 328 356 359 358 354 354 354 357 358 359 358 360 357 361 366 365 367 367 366 366 366 361 355 360 362 362 361 359 357 356
337 337 339 342 345 347 351 354 356 357 358 358 359 359 359 359 360 359 358 359 360 359 358 359 357 357 357 359 356 355 356 358 358 319 314 312 313 324 351 352 353 353 354 354 354 354 355 357 359 341 325 324 323 321 318 319 334 358 359 357 356 358 357 359 359 366 360 362 361 360 361 365 367 368 366 366 363 361 357 360 361 361 359 356 353
337 337 338 342 345 347 351 351 353 355 357 359 358 358 358 359 358 359 358 357 358 358 358 356 356 356 357 357 357 357 356 347 360 327 315 312 312 312 343 350 352 354 353 355 355 355 356 357 359 347 324 321 320 318 316 317 321 355 360 334 334 334 362 361 360 359 357 359 358 357 358 358 358 360 360 362 362 364 361 361 360 360 360 357 355
336 336 338 340 343 345 347 348 349 353 354 355 355 356 356 358 359 359 358 357 356 355 356 357 356 354 355 356 357 358 360 359 336 354 317 311 310 310 318 336 331 355 352 354 355 356 358 360 359 347 324 317 315 315 315 316 321 341 329 326 326 328 343 358 359 358 357 357 357 357 357 358 357 356 358 359 359 363 361 363 362 362 361 359 359
335 336 338 340 341 342 343 345 347 347 349 354 355 353 355 356 358 359 358 357 354 353 354 357 355 353 353 355 357 358 362 361 346 331 341 312 311 309 311 315 325 346 352 352 355 357 358 360 356 333 320 312 311 314 315 317 333 323 320 323 326 331 351 355 356 357 356 356 357 358 359 359 359 358 359 363 361 366 365 363 364 363 364 361 364
333 334 336 337 338 340 341 343 343 345 346 348 351 354 354 354 354 357 356 355 354 353 354 355 354 353 353 354 356 359 360 362 365 349 326 321 312 310 310 312 314 318 344 352 356 357 342 332 330 326 318 313 313 314 316 315 316 320 319 321 329 346 350 352 353 356 356 356 357 359 361 361 360 362 367 369 369 368 367 364 364 364 364 368 369
331 333 334 337 338 338 339 341 343 345 346 348 350 350 353 355 354 353 354 354 354 353 353 354 353 353 352 353 354 358 362 364 366 368 350 331 321 313 312 312 315 316 325 343 335 332 327 324 321 320 321 323 337 345 349 347 321 318 321 325 343 346 349 351 354 354 354 356 356 357 359 361 360 365 371 371 369 365 366 364 362 361 364 363 363
331 332 333 334 336 338 337 338 339 341 344 345 347 350 351 352 353 353 353 351 352 353 354 353 353 353 353 354 356 357 360 364 362 361 363 361 356 342 326 325 316 316 325 336 332 341 343 340 344 335 336 333 334 336 339 341 343 336 336 340 345 348 350 352 353 355 354 355 356 359 360 362 365 366 366 366 367 368 368 365 363 360 362 362 361
328 330 331 333 334 335 336 337 338 339 343 344 343 345 349 352 352 352 352 352 351 351 352 353 352 353 354 356 358 359 359 360 358 357 356 357 359 361 349 342 341 337 337 341 345 347 348 338 338 348 351 352 351 351 351 354 352 350 351 349 349 348 347 348 351 356 358 361 360 360 360 363 361 361 362 363 363 365 369 364 362 361 360 360 358
330 330 331 332 333 336 336 337 338 339 341 342 342 344 343 346 350 354 357 357 355 354 354 354 355 356 356 356 356 357 358 357 358 337 362 335 347 356 359 355 352 350 338 330 350 351 351 350 351 352 352 350 350 352 353 353 353 354 355 356 355 354 353 351 351 352 355 357 358 361 360 361 361 362 361 360 362 363 366 366 366 363 363 359 355
329 328 329 330 331 333 334 335 336 337 337 338 341 342 340 325 334 345 346 342 332 321 323 349 356 358 357 358 361 358 358 365 331 325 318 314 316 318 325 330 330 344 336 322 339 351 352 352 353 352 353 353 353 352 352 354 355 355 355 344 353 354 353 353 353 353 356 355 359 359 360 359 359 360 360 360 361 361 364 352 363 363 359 356 355
326 327 328 327 328 329 329 330 335 337 338 339 340 341 341 345 316 311 320 328 323 317 311 312 313 317 338 348 347 331 326 320 317 315 313 312 314 313 314 315 316 318 320 338 344 348 351 352 353 354 353 355 353 354 354 354 354 355 356 356 356 354 351 353 355 355 353 354 357 359 360 359 359 358 357 357 359 359 360 361 361 361 358 355 354
323 325 327 329 329 330 329 331 332 333 334 335 336 336 337 337 340 324 309 311 313 308 308 308 308 309 311 318 332 349 333 321 317 318 316 312 309 308 309 310 308 310 311 320 350 350 351 352 352 354 356 354 353 354 355 356 356 357 358 356 356 356 356 355 355 358 357 357 357 356 358 359 359 358 358 356 356 356 356 357 359 357 356 355 355
324 324 325 327 328 330 328 330 331 332 333 333 333 334 332 333 333 336 343 311 305 307 308 306 306 305 305 305 304 310 316 319 316 313 312 312 310 307 307 306 306 305 308 335 350 352 354 354 353 355 355 354 356 356 357 358 358 357 358 358 357 358 360 363 362 358 356 358 360 359 358 358 358 359 355 355 355 356 355 356 357 357 356 353 354
325 324 324 326 327 327 328 329 329 330 331 331 331 330 331 331 331 333 332 335 337 326 310 305 304 304 303 302 304 305 306 305 306 306 307 309 308 305 303 320 305 302 318 350 351 352 354 354 354 355 355 356 356 356 357 357 357 358 358 358 359 361 363 366 364 358 356 357 357 357 357 358 357 358 358 357 356 355 354 355 355 355 354 353 352
324 325 324 325 325 326 327 328 328 327 327 329 330 330 330 331 331 330 330 330 331 331 334 338 321 306 326 323 311 303 301 302 303 304 305 305 305 304 305 335 339 335 330 340 350 353 353 353 353 354 356 356 356 356 357 359 358 358 358 359 360 360 361 361 361 362 362 361 359 358 358 357 359 356 356 353 354 355 354 353 354 355 354 353 352
323 323 324 324 325 324 324 326 326 326 325 326 328 328 328 328 328 328 328 330 331 332 334 336 339 328 317 309 308 307 304 302 302 301 302 301 302 304 334 345 349 351 348 347 347 349 352 354 354 355 357 357 359 358 359 359 360 360 361 360 360 360 361 360 359 361 364 362 361 358 354 360 359 356 356 355 355 354 354 355 355 353 354 354 352
322 322 324 324 325 325 325 325 325 326 324 323 322 323 325 327 327 329 329 330 331 332 333 335 338 338 332 342 333 318 307 300 299 299 299 300 299 317 339 346 351 353 353 353 352 351 352 354 355 357 358 358 359 359 361 359 360 362 353 362 363 362 361 361 360 359 363 362 363 362 361 359 358 357 355 353 352 353 354 354 353 349 348 346 340
323 323 323 324 325 325 324 324 323 321 322 323 324 324 325 326 328 328 328 328 329 330 331 333 329 334 334 338 344 348 337 302 299 298 297 298 307 323 334 341 347 351 353 355 355 356 354 355 357 358 358 359 359 358 358 360 362 362 362 364 364 363 351 359 357 364 364 363 362 363 358 357 357 358 354 354 353 353 352 351 353 352 348 343 344
322 321 319 319 320 321 321 322 321 322 323 323 323 323 323 324 325 326 328 329 329 330 331 332 334 335 337 339 341 342 340 341 342 347 344 338 334 334 337 341 346 349 353 355 355 355 356 355 356 358 358 359 359 360 362 361 362 361 363 362 362 362 361 362 362 363 361 361 358 358 358 357 358 357 356 355 353 352 353 353 351 351 351 348 347
321 322 321 319 321 320 320 321 321 321 323 323 322 323 323 323 323 324 326 327 327 328 328 329 329 333 335 340 341 342 342 343 344 346 348 349 345 342 342 343 347 350 352 355 357 358 358 358 358 358 359 360 361 361 361 361 362 361 362 362 362 362 365 358 358 355 357 358 353 354 356 357 357 356 356 354 353 353 354 353 350 350 350 351 350
320 321 321 320 320 321 321 321 321 321 322 322 322 322 322 322 322 322 322 323 324 325 326 327 328 331 332 331 321 322 339 339 340 343 345 348 350 346 345 348 349 351 353 354 355 358 359 360 360 359 360 361 362 362 362 362 361 361 361 360 361 358 361 355 350 350 351 347 349 349 351 354 355 355 353 353 342 347 352 352 351 350 348 349 350
320 320 320 320 321 320 319 320 321 322 322 323 322 321 321 320 320 320 320 321 322 323 324 326 327 329 324 314 308 304 327 340 341 341 343 346 348 345 339 337 334 331 329 329 327 329 332 336 344 354 360 360 360 359 360 361 362 362 361 361 363 358 358 354 348 348 348 348 350 350 349 348 350 350 351 338 352 351 350 351 352 351 351 349 346
321 320 320 321 320 320 319 320 321 321 320 320 320 320 320 320 319 319 319 320 320 321 322 323 326 328 329 309 308 308 331 337 336 333 330 325 322 323 322 320 317 317 318 318 319 321 324 328 332 337 344 352 360 362 362 362 363 363 364 364 359 358 357 354 353 350 349 349 347 345 348 348 346 345 347 346 348 349 349 348 347 348 347 347 345
319 319 319 319 320 320 320 319 319 319 319 319 319 319 319 319 318 318 317 317 318 319 320 322 323 322 320 317 314 318 324 322 322 320 318 316 314 313 311 310 309 309 310 311 312 314 316 320 325 330 334 339 336 334 336 336 335 340 350 355 355 350 352 353 353 353 350 351 350 346 346 345 343 344 341 340 344 344 344 345 344 344 344 345 345
318 319 318 318 318 318 318 319 318 318 318 318 318 318 317 316 316 315 315 314 315 316 316 316 315 314 314 313 313 313 313 313 311 311 310 310 310 309 309 309 308 308 308 309 310 311 312 314 316 319 320 323 324 324 323 321 320 324 330 337 346 349 349 351 353 352 351 351 348 345 344 342 343 342 341 341 341 343 340 341 341 334 336 336 338
316 317 317 317 317 317 317 317 317 317 316 316 315 315 316 315 314 314 313 312 311 311 310 310 310 310 308 307 308 308 308 308 308 307 307 308 308 307 307 307 307 308 308 308 309 309 310 311 312 313 314 314 314 314 313 313 313 315 318 322 328 335 344 350 352 350 349 349 347 345 344 343 343 342 340 341 341 341 341 339 338 335 334 333 334
316 316 316 315 315 316 316 316 315 315 316 315 314 313 313 313 312 311 311 309 308 308 307 307 306 306 305 305 304 304 304 304 304 304 304 305 305 305 305 306 306 305 305 306 307 307 307 307 307 308 309 309 309 309 309 309 310 311 312 314 316 318 323 329 338 344 345 345 346 345 343 340 339 340 338 338 338 337 335 336 335 333 334 332 331
314 314 314 314 314 314 314 314 313 313 313 313 312 312 311 310 309 308 307 307 306 305 305 304 304 304 303 303 304 303 302 301 301 302 302 302 302 303 304 304 304 304 304 303 304 305 305 305 305 306 306 305 305 304 304 305 305 305 306 307 306 305 305 308 326 331 336 341 344 343 341 338 337 337 336 336 336 332 331 329 329 327 325 325 326
312 312 312 312 311 311 312 312 312 312 312 312 311 309 309 308 306 305 305 304 303 303 302 302 302 302 302 302 302 301 301 301 300 300 300 300 301 301 302 302 302 302 303 302 302 303 303 303 303 303 303 303 303 303 303 303 302 303 302 303 301 298 297 299 310 319 315 325 326 326 327 327 328 327 327 327 327 327 326 324 322 321 322 324 326
310 310 310 310 310 310 311 311 310 310 310 309 308 308 307 305 303 303 302 302 302 301 301 300 300 300 300 300 300 299 299 299 299 299 300 300 300 300 300 300 300 301 301 301 301 301 302 302 302 302 302 302 302 302 302 302 302 302 302 300 295 294 295 299 301 303 316 319 318 317 316 316 315 315 315 316 317 318 318 318 318 317 317 319 320
309 309 309 309 309 308 308 307 307 307 307 307 306 305 304 303 302 301 300 300 299 299 299 299 299 299 299 299 299 298 298 298 298 298 299 299 300 299 299 299 299 300 302 302 302 302 302 303 302 302 302 302 302 302 302 302 301 299 296 294 293 294 294 296 300 295 299 307 316 315 313 312 311 310 310 310 310 310 310 311 313 313 314 313 314
Wind_Speed
15 14 13 14 14 15 14 14 15 13 14 13 12 11 11 11 10 10 9 9 9 9 9 9 9 8 9 8 8 7 7 7 7 7 7 7 7 6 6 4 6 6 6 6 6 4 4 5 5 5 4 5 4 4 4 5 5 5 4 4 5 5 5 4 5 4 4 2 3 4 3 4 3 2 4 5 4 3 5 3 4 4 4 1 7
14 14 13 13 15 14 15 14 14 13 14 13 13 12 11 11 11 10 10 10 10 10 10 9 9 9 9 9 8 8 8 8 8 8 8 8 8 7 7 7 7 7 6 7 7 5 5 6 6 6 6 6 6 6 5 5 5 5 5 5 5 5 4 4 4 4 5 3 4 3 4 3 5 3 3 5 5 4 5 4 4 3 3 5 3
15 14 13 13 15 14 14 13 13 15 15 14 14 14 13 12 11 11 12 11 10 10 10 10 9 9 10 9 8 8 8 9 8 8 8 8 8 8 7 7 8 8 8 8 8 7 7 7 7 7 6 6 7 7 6 6 5 5 5 4 4 5 4 4 4 5 5 5 4 5 4 2 5 4 4 4 4 4 4 4 4 3 3 3 4
15 15 14 15 16 15 14 14 15 15 15 14 15 15 13 12 12 12 13 12 11 10 11 11 10 10 10 10 10 9 9 9 9 9 9 9 9 9 9 8 7 8 8 8 8 8 7 7 7 7 6 6 6 6 5 5 5 5 6 6 6 6 5 5 6 5 5 6 5 5 4 4 5 5 4 4 5 3 4 4 4 4 4 4 5
15 16 16 16 16 15 15 15 15 15 15 14 16 15 14 13 12 13 12 12 12 11 10 11 11 10 11 11 11 11 10 10 10 10 9 9 9 9 9 9 9 9 8 8 7 7 7 7 7 7 7 7 7 7 6 7 6 6 6 5 6 5 5 6 6 6 6 7 6 5 5 5 5 5 4 5 4 4 4 4 4 4 3 5 6
15 15 15 15 15 16 16 15 16 16 15 15 15 15 14 14 13 12 12 12 12 12 11 10 11 12 11 11 11 11 10 10 10 10 11 10 10 9 9 9 9 9 9 9 9 8 8 9 8 8 8 8 7 7 6 7 7 7 7 6 6 6 6 6 6 6 7 7 6 6 6 6 5 4 5 5 5 5 4 4 4 5 4 4 5
14 14 15 15 14 15 16 15 14 15 14 14 13 13 14 14 14 13 12 12 13 12 12 12 10 11 12 11 12 11 11 11 10 10 11 10 10 10 10 10 9 9 9 10 10 9 9 9 9 9 9 9 9 8 7 7 7 7 7 7 7 7 7 7 7 7 7 7 7 7 6 6 6 6 4 4 5 6 6 5 5 2 3 3 4
14 13 13 13 13 15 15 14 14 13 13 12 13 13 13 13 13 12 11 12 13 13 13 13 12 11 11 11 11 11 11 11 11 10 10 10 10 11 10 10 10 10 10 10 10 10 10 10 10 9 10 9 9 8 8 7 6 7 6 6 7 7 8 7 7 7 7 7 7 6 6 5 5 6 6 5 6 6 5 5 5 4 4 3 4
13 13 12 11 12 13 12 12 12 12 12 12 12 13 13 12 12 12 12 12 11 13 13 13 12 12 12 12 11 11 11 11 10 10 11 11 11 12 11 11 11 11 10 10 10 10 10 10 10 10 9 9 8 7 7 4 5 6 6 6 7 7 7 7 7 7 7 7 7 6 7 7 7 6 6 6 6 6 4 5 6 6 5 5 4
11 13 13 13 13 11 10 10 11 11 12 12 12 13 13 12 12 13 13 12 11 11 11 12 13 13 12 12 12 11 11 10 10 13 11 10 11 11 10 10 11 11 10 10 11 11 11 11 10 11 8 7 8 10 10 9 8 9 7 6 7 8 8 8 8 7 7 8 8 7 8 8 7 7 6 6 6 5 6 6 6 5 5 5 5
12 12 13 13 12 12 11 11 11 11 12 12 12 12 12 12 11 11 12 12 11 11 11 12 13 13 13 13 13 12 11 11 13 15 15 13 11 10 10 10 10 11 11 11 11 11 11 11 10 10 9 10 10 12 12 13 13 13 13 12 10 8 8 9 9 8 8 8 8 8 8 9 8 8 7 7 7 6 5 5 6 6 6 6 6
12 12 13 11 11 11 12 11 12 11 11 12 12 12 11 12 11 11 11 12 11 11 12 12 12 13 13 13 14 13 12 12 14 16 16 17 14 12 12 11 11 11 11 12 11 11 11 11 11 10 10 11 11 11 12 14 14 14 14 14 15 16 14 10 8 8 9 9 9 9 8 8 8 7 8 7 6 5 5 6 6 6 7 7 6
8 11 13 12 11 11 11 11 12 12 12 12 11 10 10 11 12 12 13 12 11 11 12 12 12 12 13 13 13 14 13 13 14 16 17 17 18 15 13 13 13 13 12 12 12 11 10 10 10 9 9 10 11 11 10 11 15 17 16 15 15 16 16 17 16 12 9 9 10 9 9 8 8 8 7 6 4 6 6 7 7 7 7 7 7
5 5 8 11 11 11 12 12 12 12 12 11 11 11 11 12 13 11 10 9 10 11 12 13 12 12 12 13 13 13 14 13 14 16 17 18 17 15 14 15 15 14 13 13 12 12 12 11 10 10 10 10 10 11 11 11 10 10 10 11 12 15 17 18 18 19 16 13 11 11 10 8 9 7 7 6 7 7 7 8 7 8 8 8 8
4 4 4 7 10 10 10 11 12 12 11 11 11 12 12 12 12 11 11 11 11 12 12 12 11 12 13 13 12 13 13 14 13 16 17 18 17 14 13 14 14 14 13 13 13 13 13 12 12 12 11 11 10 11 11 11 11 10 11 11 12 12 12 13 15 14 13 14 14 14 12 10 10 9 8 7 8 8 7 8 8 8 8 8 9
5 4 4 1 4 7 10 11 11 12 12 11 12 12 12 12 12 11 11 11 11 11 11 11 12 13 13 13 13 14 13 14 14 15 16 17 16 10 12 13 14 14 14 14 13 13 13 13 12 13 12 12 12 14 12 10 10 11 11 12 11 12 12 13 13 13 13 13 14 14 13 13 11 9 7 7 7 7 7 7 7 7 7 8 9
10 6 5 7 6 5 6 8 9 10 11 11 12 12 12 12 12 10 11 11 12 12 12 11 10 12 13 13 14 13 14 14 15 16 16 17 12 10 11 12 12 14 14 14 13 14 14 14 14 13 14 13 14 14 15 14 12 12 12 12 11 12 12 11 15 17 16 15 14 12 12 10 6 6 7 5 5 4 5 7 8 8 8 9 9
8 8 6 5 6 5 5 7 9 10 10 12 12 12 11 11 11 11 12 12 13 14 12 12 12 12 13 13 13 14 14 14 16 17 18 18 16 12 11 12 13 13 13 14 13 13 15 17 16 15 14 14 14 15 16 14 13 13 13 13 13 13 13 12 9 12 20 19 19 18 15 12 12 11 10 9 7 5 8 10 9 7 9 9 10
9 8 7 7 7 5 6 7 8 9 10 11 12 13 13 12 11 11 12 11 12 11 11 12 12 10 11 12 12 15 15 15 16 18 19 19 16 12 12 12 12 13 13 13 14 13 14 15 18 17 16 15 14 14 16 15 14 13 13 13 14 15 14 12 12 12 10 12 10 11 11 11 11 10 11 15 13 11 10 11 9 9 9 10 9
10 8 7 7 6 6 6 5 7 9 11 11 11 12 12 12 13 12 12 11 12 13 11 11 12 11 12 13 13 14 16 15 13 19 19 19 21 14 12 12 14 14 14 13 13 13 13 14 14 19 21 20 16 14 16 18 15 13 12 13 13 15 13 12 12 11 11 11 10 11 12 12 12 12 12 12 11 12 12 12 12 11 10 10 10
11 10 9 8 6 6 6 5 5 7 8 9 11 12 11 12 13 13 14 12 12 12 15 13 12 12 11 11 12 14 14 15 15 19 20 20 22 19 13 15 14 13 13 13 13 14 13 13 13 15 21 22 20 18 16 18 17 14 14 14 14 12 9 11 11 11 12 11 10 10 10 10 10 10 11 11 12 11 12 14 13 13 12 11 11
11 11 10 9 8 7 8 6 5 5 5 6 8 9 11 11 11 12 12 13 13 14 14 14 14 14 13 12 13 13 14 17 16 15 20 21 21 24 16 17 16 14 14 13 13 14 14 13 13 13 17 20 21 20 18 16 18 13 16 17 16 13 11 11 10 10 10 11 11 11 11 11 11 12 12 11 11 12 12 13 14 14 14 13 13
11 11 10 9 9 10 9 8 7 6 6 6 6 7 7 9 11 11 11 10 13 15 14 14 14 15 15 14 13 14 14 12 16 13 17 21 22 22 24 20 18 14 15 14 14 14 13 14 14 14 15 18 18 18 17 19 15 15 21 19 17 16 11 11 12 11 11 11 11 10 10 10 11 11 11 11 11 11 11 11 13 14 14 14 13
11 11 9 8 8 8 9 9 7 6 7 8 7 7 8 8 9 9 10 11 12 14 14 13 13 16 15 13 12 13 12 13 13 16 14 20 20 22 23 25 20 15 16 15 14 14 13 13 13 14 15 16 17 17 18 18 15 20 20 20 19 15 10 13 12 12 12 11 11 11 11 11 11 11 11 10 10 9 10 10 11 13 12 12 12
10 11 10 9 8 8 8 8 7 6 6 7 8 8 8 8 7 7 9 11 12 12 12 12 12 14 14 13 12 11 12 12 11 10 16 17 21 22 23 24 24 22 17 17 15 15 13 11 9 10 12 14 17 17 15 17 21 20 20 20 18 10 12 12 13 12 13 13 12 12 12 12 12 11 10 10 9 9 9 10 11 11 11 12 11
9 9 10 10 9 8 9 8 7 6 6 5 6 7 8 8 7 7 9 9 10 11 12 11 12 13 13 13 14 12 10 10 10 6 4 11 14 20 24 23 24 24 23 19 19 18 16 15 10 7 8 10 10 8 9 10 17 20 20 18 11 12 12 12 12 14 14 13 12 12 12 11 12 11 11 10 10 11 10 10 10 11 10 10 10
8 8 9 10 10 9 9 7 7 8 7 6 5 5 7 8 9 9 9 9 10 10 11 12 12 12 13 13 13 13 11 9 7 6 6 4 7 10 13 14 20 19 14 15 16 14 15 12 11 12 11 12 14 13 14 13 12 12 11 11 12 12 12 12 13 13 13 12 12 12 11 11 11 11 12 11 11 10 10 10 11 11 11 11 11
9 9 10 9 9 9 10 9 9 7 7 6 6 5 6 7 9 9 9 10 10 11 11 11 12 11 11 12 12 11 10 7 6 6 5 6 7 9 12 13 12 12 13 13 13 15 15 15 14 13 12 11 12 11 13 13 13 12 12 11 12 13 14 14 13 13 12 12 12 12 11 11 11 12 12 12 12 11 11 11 11 11 11 11 11
10 10 9 8 8 8 9 9 7 7 8 8 6 6 6 7 8 9 10 9 10 11 11 11 11 12 11 12 12 11 7 7 4 6 1 7 11 12 13 13 12 11 14 15 11 11 12 13 14 14 13 14 14 14 14 13 13 13 14 13 12 12 12 13 14 14 13 12 13 12 12 12 12 11 12 12 12 12 10 10 10 11 10 11 13
10 9 8 8 8 7 7 8 8 8 8 8 7 7 8 10 11 10 11 9 9 10 6 9 10 10 11 11 10 11 10 2 8 6 10 10 17 22 24 19 15 13 13 18 14 11 12 13 13 14 13 13 13 13 14 13 13 12 13 14 13 13 13 13 13 13 13 13 13 12 12 12 13 13 13 13 12 12 11 10 11 11 10 12 13
9 9 8 8 8 8 8 9 8 8 8 9 9 8 9 8 11 15 15 14 14 15 16 17 16 15 13 14 15 16 17 14 7 7 7 16 24 24 24 21 11 14 12 10 10 13 13 13 13 13 13 13 13 14 13 13 13 13 12 12 13 14 14 14 13 12 12 13 13 13 13 12 13 13 14 13 13 12 12 10 11 12 13 14 14
10 8 8 8 8 8 8 8 9 9 9 9 9 9 9 10 9 9 15 16 16 16 17 17 17 16 17 15 13 13 15 17 19 21 20 17 17 18 18 17 12 10 13 16 11 11 13 13 13 13 12 13 14 14 13 13 12 13 12 12 12 12 13 14 12 12 12 12 12 12 13 13 13 13 13 13 12 13 12 12 12 14 14 14 14
11 11 9 9 8 8 8 8 8 9 10 11 11 10 9 9 10 11 8 10 14 14 15 15 16 16 16 17 18 17 18 16 17 19 19 20 17 16 16 16 14 10 8 8 12 12 12 13 13 13 14 15 13 13 13 13 13 13 14 13 13 12 12 12 12 13 13 13 12 13 13 13 13 13 13 13 12 12 12 12 13 13 13 14 13
11 10 9 9 9 8 8 8 8 9 9 10 11 11 10 9 10 11 12 12 9 7 9 12 14 14 14 15 16 17 18 18 19 21 22 23 19 14 9 8 2 10 12 11 11 13 14 16 16 15 13 13 15 14 14 14 13 12 13 14 14 13 13 12 12 13 13 13 14 14 13 13 13 13 13 13 13 14 13 13 13 12 11 11 14
10 11 15 13 10 10 9 9 9 9 9 9 10 12 12 11 11 11 10 11 11 12 12 7 8 12 11 10 11 14 15 18 19 21 22 21 20 12 3 5 5 5 6 10 12 13 16 16 16 16 15 14 14 13 15 14 14 15 15 15 14 13 13 13 14 14 13 13 13 14 13 13 14 14 15 15 13 13 14 14 13 13 12 12 14
11 11 10 11 10 10 9 9 9 9 9 9 9 10 11 12 12 12 11 11 11 11 11 10 9 7 11 12 14 14 14 16 17 18 18 17 14 10 9 14 13 13 11 10 12 13 13 16 17 16 15 14 14 14 13 14 14 14 13 14 15 14 13 14 14 14 14 15 14 13 13 13 13 14 14 15 15 15 14 11 11 12 12 12 12
11 12 11 10 9 9 9 9 9 9 8 8 10 10 11 12 12 11 11 11 11 11 11 12 11 11 9 8 10 12 12 8 10 12 14 15 13 12 12 12 12 14 15 14 13 13 13 14 14 15 15 14 14 14 13 14 14 13 12 12 13 14 14 13 14 13 13 14 13 12 12 12 12 12 13 14 13 13 12 12 11 11 11 12 11
11 11 11 10 9 8 9 9 10 10 10 10 10 9 10 10 11 12 12 11 12 12 12 12 11 12 11 8 8 9 2 5 8 7 7 6 7 9 10 10 10 12 14 14 14 15 15 14 14 15 15 14 15 15 15 14 13 12 13 13 13 14 14 12 11 12 13 13 14 12 12 11 10 10 10 13 12 10 11 12 12 10 9 12 13
11 12 12 10 8 10 10 10 10 10 10 10 9 9 10 10 10 11 11 10 10 10 10 11 12 11 10 8 8 5 4 6 6 8 7 7 8 8 8 8 9 11 12 14 14 14 15 15 14 14 15 14 14 14 13 14 12 13 13 13 14 14 14 13 11 10 11 11 11 13 12 11 8 8 10 10 11 13 13 11 11 13 13 15 14
9 10 9 12 9 10 10 10 10 10 10 10 10 9 9 9 9 10 10 10 12 12 11 11 11 11 10 8 7 7 10 9 9 7 7 8 6 7 7 8 9 10 11 12 13 14 15 16 15 14 14 14 14 14 14 14 15 14 13 13 12 9 6 3 5 5 9 8 6 9 10 8 9 9 11 12 12 12 13 12 10 12 14 14 13
9 10 9 8 7 8 9 10 10 10 10 10 10 9 10 10 9 9 10 11 12 12 12 12 11 11 10 10 10 11 10 12 10 8 8 9 8 6 7 9 9 11 11 12 12 12 13 14 14 13 12 13 13 14 15 15 15 15 14 12 10 9 6 7 8 9 9 8 9 11 11 10 11 10 11 11 11 12 13 11 11 10 12 12 12
8 9 8 8 8 9 9 9 9 10 9 10 10 10 10 10 9 9 10 11 12 12 13 12 11 10 12 16 13 9 7 9 8 9 9 10 8 6 5 5 6 7 8 8 8 8 8 8 7 6 7 10 12 12 13 13 13 12 12 9 4 5 6 7 8 9 9 10 9 12 13 12 12 11 10 9 8 12 15 13 13 12 11 9 12
9 9 9 9 9 8 9 9 9 9 9 10 10 10 10 10 10 10 10 10 11 11 12 13 12 10 7 7 10 10 7 8 7 5 1 2 3 4 4 4 4 4 4 5 5 5 5 6 6 6 6 7 8 8 9 9 9 10 9 6 7 9 7 6 6 8 8 7 9 8 7 8 9 10 11 10 8 9 10 13 13 14 12 13 11
8 9 9 9 8 8 8 9 9 9 9 10 10 10 10 10 10 10 10 10 10 10 11 11 10 8 7 7 7 6 6 5 5 4 4 4 4 4 4 4 4 5 4 4 5 5 5 5 6 7 8 8 8 10 9 8 8 7 8 9 8 9 8 7 8 8 8 8 8 9 10 10 11 10 10 11 12 13 12 13 13 13 13 11 8
9 10 9 9 9 9 9 8 8 9 9 9 9 9 9 9 9 9 9 9 8 9 9 9 9 8 7 6 6 5 5 5 6 5 5 5 5 5 4 5 5 5 5 5 5 5 5 5 6 7 8 8 8 8 7 7 7 7 7 8 9 10 10 10 8 8 8 10 10 9 10 10 10 10 11 11 11 12 12 13 12 10 9 8 8
9 9 10 10 9 9 8 8 7 8 8 8 8 8 8 8 8 8 8 8 7 7 7 7 7 7 6 5 5 5 5 4 4 5 5 5 4 5 4 4 5 5 5 5 5 6 6 5 5 5 6 7 7 7 7 7 7 7 8 9 9 9 8 9 10 11 11 11 11 11 12 11 11 10 11 11 11 12 12 11 9 9 9 7 7
9 9 9 9 9 9 8 7 7 8 8 8 8 8 8 7 6 6 6 6 6 6 6 5 5 5 5 4 4 4 5 5 4 4 5 5 5 5 5 5 5 5 6 6 6 6 6 7 6 6 7 7 7 8 8 7 7 6 7 7 9 10 9 8 6 6 9 10 11 11 10 10 9 8 11 11 10 10 10 10 8 9 7 7 7
8 8 8 8 8 8 7 7 7 8 8 8 7 7 6 6 5 5 5 5 5 4 4 4 4 4 4 3 4 4 4 4 4 4 5 5 5 5 5 6 6 6 6 6 6 7 7 7 7 7 7 8 8 9 8 8 8 8 8 8 9 9 12 12 6 6 5 5 6 7 7 6 7 9 9 10 8 7 8 8 8 7 7 8 8
8 8 8 8 7 7 6 6 6 6 6 6 6 6 5 4 4 3 3 3 3 3 3 3 3 3 2 3 4 4 4 4 4 5 5 5 5 5 6 6 7 7 6 6 7 7 7 8 8 9 9 9 9 10 10 10 11 11 11 9 11 18 19 18 10 7 8 6 7 8 7 6 4 5 3 3 3 5 6 7 8 8 8 9 9
7 7 7 7 6 6 5 5 5 4 5 5 5 5 4 3 2 2 2 2 2 2 2 2 2 3 3 3 4 4 4 4 5 5 6 6 6 6 6 6 7 7 7 7 7 7 7 8 9 10 10 10 11 11 11 11 10 9 8 11 19 22 21 21 21 19 11 6 8 8 9 10 10 9 9 9 9 9 9 8 8 9 9 10 10
7 7 6 5 5 4 4 4 4 4 4 4 3 3 3 2 1 1 1 1 1 1 2 2 2 3 3 3 4 4 4 5 5 6 6 6 6 6 6 7 7 7 8 8 8 8 8 8 8 10 10 11 10 8 8 9 9 9 14 20 21 22 23 21 17 20 22 15 8 8 10 12 12 12 11 11 12 13 12 12 12 11 11 11 11
Wind_Direction
193 194 195 198 195 195 196 197 202 203 206 205 210 212 214 217 217 219 210 217 216 212 212 217 220 218 226 223 222 213 213 218 219 218 219 222 231 243 257 227 225 232 229 242 248 228 230 236 236 235 243 244 245 245 233 221 223 232 237 237 240 227 230 244 265 280 277 302 281 286 327 309 290 305 288 301 314 346 309 326 309 323 322 272 138
199 194 196 197 198 197 198 196 199 201 205 205 208 210 215 214 217 215 217 212 217 220 216 215 214 218 221 222 222 223 213 217 221 218 218 220 226 225 223 229 232 237 241 231 230 243 231 233 239 240 230 239 247 247 241 240 224 225 223 230 243 243 217 249 256 274 282 263 258 272 290 255 275 274 300 304 322 313 319 319 302 316 326 311 158
198 194 196 196 199 199 199 197 196 201 205 207 210 212 211 214 211 214 217 216 210 221 220 221 218 215 220 222 217 222 221 221 225 225 222 221 226 235 234 223 225 230 227 227 230 226 230 233 237 238 236 231 232 243 251 252 257 256 251 242 242 248 227 224 253 260 272 279 281 268 245 259 284 293 288 290 298 284 294 304 312 319 318 290 300
197 194 196 199 198 198 199 201 200 201 205 209 213 213 213 209 208 213 215 219 214 211 220 223 219 215 217 218 216 220 220 223 226 224 221 224 227 228 235 238 235 233 235 234 227 226 229 232 240 244 244 240 243 254 252 247 241 239 243 239 242 249 258 241 236 255 266 275 268 277 290 291 276 269 268 265 275 287 297 303 282 291 315 304 278
199 195 198 201 199 201 201 201 203 204 208 212 213 213 215 213 206 211 214 218 219 213 209 215 218 216 218 218 217 218 221 221 223 228 225 224 226 230 230 229 230 234 237 237 239 239 237 238 237 237 238 244 242 241 241 233 236 240 236 236 237 238 236 236 235 236 249 259 268 264 269 265 267 268 268 280 281 269 252 251 282 294 297 310 308
205 199 200 202 201 201 201 203 205 206 210 213 215 216 215 216 213 207 214 216 218 218 209 209 211 213 219 223 222 221 221 222 222 227 229 226 224 229 229 229 230 231 231 232 234 234 238 238 238 239 240 240 244 244 243 240 234 236 243 245 241 235 236 237 235 241 248 253 260 268 252 254 258 251 262 258 272 286 282 266 241 236 260 300 330
207 207 203 205 203 205 202 204 205 207 207 213 215 217 220 219 218 215 208 214 215 218 214 211 210 213 215 221 225 223 221 221 222 222 227 231 228 226 232 229 231 232 232 236 238 238 239 240 237 237 240 240 242 242 237 233 240 244 236 239 238 237 237 237 232 237 241 246 250 252 261 256 251 257 242 229 256 268 275 274 275 258 241 260 280
215 209 209 208 207 206 207 204 206 206 207 207 213 216 217 219 220 220 214 212 216 216 219 213 211 214 216 218 220 222 220 222 220 222 223 225 224 224 227 234 234 232 235 236 239 242 241 241 244 237 234 232 234 239 244 247 242 244 239 233 236 235 243 243 240 240 242 245 249 256 258 265 258 260 261 241 249 249 242 259 272 281 283 268 257
211 208 213 216 209 208 208 208 206 204 205 204 207 213 216 215 216 218 217 219 219 221 221 222 216 216 219 218 219 218 221 221 222 218 218 220 226 226 226 229 232 236 237 239 236 239 244 247 244 246 241 232 226 236 253 283 259 248 246 243 240 240 240 246 243 240 243 248 255 250 249 248 252 253 254 251 253 270 276 272 275 275 274 269 269
214 214 205 209 215 211 208 207 205 202 201 203 203 206 211 213 214 214 215 216 220 222 226 226 227 221 220 219 219 220 221 224 213 209 216 222 220 229 230 231 236 237 237 239 242 239 240 245 250 247 244 230 204 208 220 231 240 256 261 247 241 242 244 245 244 240 241 248 247 249 249 248 248 238 244 250 258 250 254 248 260 275 285 280 274
221 221 220 215 212 203 200 203 201 201 201 202 203 205 210 213 214 214 214 216 219 217 220 223 227 230 226 223 222 222 225 224 200 190 200 215 228 230 235 235 233 234 236 237 241 244 246 245 249 240 218 215 217 211 214 217 223 230 243 257 271 267 250 245 245 243 246 244 246 248 253 257 258 266 262 264 261 260 264 267 274 280 277 287 288
222 226 228 224 218 211 207 198 198 199 198 203 204 205 209 212 215 213 215 216 214 218 218 220 224 229 232 231 230 230 230 223 190 190 196 203 211 227 236 239 238 236 236 238 238 240 243 245 245 245 235 229 232 218 214 220 224 226 228 232 237 248 256 263 261 251 243 247 250 251 258 254 255 250 257 261 267 253 248 260 264 266 276 273 277
263 229 225 230 222 219 218 206 198 200 201 202 200 204 207 212 217 219 220 220 221 220 224 223 220 224 231 234 237 236 237 220 190 191 197 202 207 216 235 241 242 243 241 238 240 240 241 242 246 244 251 210 213 229 229 217 216 224 227 227 233 233 237 243 249 256 266 260 254 253 246 254 253 252 252 258 264 265 262 258 252 257 261 268 271
306 312 243 224 224 219 222 221 211 206 205 204 202 203 207 210 218 222 228 228 228 228 228 228 226 224 227 230 234 238 238 230 193 194 198 202 205 206 231 237 242 245 245 244 242 239 236 240 237 238 237 235 229 226 225 230 225 213 216 224 230 228 225 229 234 238 242 251 256 254 250 246 253 254 252 244 243 248 253 257 263 264 263 265 277
265 269 251 234 227 222 220 224 229 224 215 208 206 206 206 211 215 216 220 221 222 226 232 233 229 227 227 228 232 234 235 230 203 197 201 202 203 202 227 235 241 243 242 242 243 245 242 237 237 237 236 232 230 223 226 225 227 229 227 225 225 232 228 222 221 224 225 231 237 245 250 250 251 250 249 247 241 245 247 261 271 277 281 283 271
303 344 3 22 234 229 231 232 229 226 221 216 212 208 208 211 215 212 217 225 228 230 228 234 234 230 228 230 233 235 240 220 207 200 202 204 197 204 224 232 239 242 242 241 241 240 239 239 238 237 235 234 224 211 217 228 231 230 232 235 237 237 238 230 218 217 224 223 225 233 237 240 242 251 267 266 245 232 241 251 253 256 260 262 263
360 10 14 328 324 292 263 246 232 230 229 223 220 217 213 212 213 212 217 222 223 228 235 232 233 236 234 231 233 239 243 225 201 202 200 199 186 213 221 231 236 240 243 243 241 239 238 236 235 238 236 233 224 201 205 210 233 238 240 241 243 245 244 236 201 208 216 230 240 240 252 263 267 262 260 265 267 286 267 253 245 242 250 257 261
357 355 351 345 323 307 258 241 243 238 238 236 233 230 226 221 219 213 216 218 223 225 222 232 237 236 236 237 235 238 241 230 200 201 201 192 192 208 218 225 234 237 241 240 240 240 239 235 237 239 239 237 221 192 198 198 225 234 239 243 244 244 245 246 242 202 208 211 217 228 233 239 250 252 249 244 226 210 231 238 238 236 241 249 259
348 345 340 326 318 303 291 270 253 250 245 241 242 241 235 229 225 222 224 222 227 226 225 229 225 224 238 244 242 236 243 240 203 200 201 194 195 213 218 226 231 235 237 238 236 237 239 234 226 230 237 239 226 193 192 195 222 229 232 238 243 246 245 244 240 245 216 207 223 226 235 240 242 238 236 229 219 209 224 234 240 236 241 244 248
337 332 323 315 308 300 273 261 265 257 251 248 246 245 245 243 238 232 228 231 237 238 230 228 237 233 222 223 236 243 242 241 208 194 199 195 195 207 217 223 231 232 233 236 240 237 237 239 227 215 225 230 229 200 191 198 217 229 232 236 239 241 245 242 243 247 250 244 226 207 215 224 226 228 232 229 216 206 216 223 229 233 236 239 239
331 331 325 312 307 306 302 271 259 265 258 253 252 248 243 241 240 236 233 232 233 236 238 232 229 239 245 239 228 229 240 243 227 188 197 194 197 201 217 225 228 231 232 234 236 241 240 237 243 215 210 218 221 212 193 201 212 227 233 237 237 245 258 252 242 230 244 249 252 249 234 225 229 227 222 221 219 206 207 215 223 227 230 234 239
328 327 322 319 316 314 317 319 272 250 280 294 280 263 250 242 241 237 235 233 232 236 241 240 239 239 238 243 244 239 236 241 246 190 193 194 196 198 213 225 224 227 231 235 236 239 239 240 241 226 204 211 215 215 204 200 211 221 235 237 244 249 256 251 261 261 248 238 241 238 237 237 236 236 233 228 220 210 206 204 213 225 225 235 238
324 321 321 323 327 319 312 312 322 321 280 247 253 267 263 254 241 229 227 229 232 238 239 239 238 241 241 237 233 237 240 242 233 222 189 196 196 199 210 221 219 221 233 235 234 238 238 239 242 232 204 206 209 212 205 204 206 222 231 237 238 242 244 246 253 255 256 254 246 239 236 234 236 234 231 233 231 221 217 209 209 214 226 235 242
322 320 321 326 323 311 303 310 313 307 316 307 279 251 250 249 242 231 227 224 232 237 239 238 239 244 244 238 235 232 228 236 227 219 199 192 198 201 209 218 223 224 229 239 239 240 241 239 237 227 206 200 204 207 207 200 211 220 227 234 238 238 239 244 243 244 246 245 240 238 235 230 233 234 233 230 233 220 222 223 219 218 221 229 231
320 314 315 316 312 304 301 299 296 292 281 280 288 283 257 250 257 248 232 230 232 235 239 236 235 241 244 243 240 239 238 239 247 211 203 196 198 203 210 214 221 224 231 237 243 246 250 249 245 223 201 199 205 210 211 207 213 219 221 227 230 233 231 234 239 238 237 233 233 232 231 229 230 232 232 234 228 229 225 227 231 232 231 230 234
310 312 312 307 301 304 304 301 291 282 272 264 266 273 279 267 251 246 248 241 235 237 240 239 240 240 244 247 248 251 250 250 248 240 195 210 211 209 208 211 218 221 224 236 238 246 255 267 267 254 218 209 209 213 220 212 211 220 225 224 223 228 228 228 229 232 235 235 232 232 231 230 226 223 227 230 230 227 227 229 230 232 230 230 231
306 305 305 306 307 304 298 302 315 305 292 278 261 266 271 267 262 253 247 251 249 245 240 240 243 244 246 247 247 248 247 243 238 228 239 226 228 226 219 220 222 225 229 237 245 253 256 254 249 242 245 220 214 222 226 224 208 213 222 223 226 229 227 227 231 231 232 235 236 234 234 234 234 232 229 224 226 229 227 226 232 236 232 232 231
309 307 305 306 302 305 303 309 304 297 296 293 289 282 270 267 259 251 247 243 246 247 247 244 242 239 242 245 243 236 230 227 235 230 236 226 224 224 220 212 208 208 218 225 226 235 240 243 239 243 240 239 231 233 235 233 231 226 221 217 220 223 227 230 232 238 238 235 237 239 239 234 233 232 230 231 234 230 227 230 232 236 237 237 231
303 303 301 296 296 297 296 295 294 299 299 293 282 278 283 280 278 273 260 254 251 253 255 254 248 248 247 252 254 252 239 237 240 48 217 223 230 242 225 208 216 208 216 218 222 229 235 240 244 239 235 233 234 234 233 230 228 224 224 223 220 215 217 218 223 227 228 231 234 235 238 236 235 232 233 238 236 236 230 229 228 232 233 240 242
295 294 297 298 295 301 303 302 304 303 298 295 291 283 259 248 262 275 282 279 276 277 273 270 282 297 291 282 286 273 266 299 90 204 218 253 262 261 271 275 203 210 199 193 209 230 232 239 237 236 235 234 234 232 231 229 228 223 221 215 219 224 220 218 222 224 221 224 228 230 233 235 235 232 234 237 238 238 235 229 231 225 224 233 240
286 289 292 293 308 313 304 300 303 304 302 298 298 301 299 274 239 240 246 257 259 259 257 254 258 260 261 278 278 282 293 293 248 222 193 234 239 236 233 245 217 202 181 160 202 222 237 240 242 240 239 238 238 237 235 234 232 231 228 219 215 219 222 227 224 220 221 220 222 226 230 231 235 236 238 238 239 239 239 225 227 226 229 232 237
272 281 288 290 295 293 297 298 298 296 292 289 292 300 292 289 294 252 236 242 248 250 253 256 257 255 256 252 263 281 276 275 280 279 269 253 238 235 239 240 232 204 187 178 206 222 230 238 242 242 239 238 238 240 239 239 236 235 234 231 226 220 217 221 217 220 222 223 222 223 225 230 233 235 237 239 239 244 243 236 226 229 229 230 232
260 267 277 287 288 288 288 292 294 293 293 292 292 291 293 299 298 300 285 238 238 250 256 250 250 254 251 250 243 240 252 262 269 270 267 271 271 261 252 245 236 209 153 192 226 233 239 239 243 243 244 244 242 241 239 238 240 240 240 237 236 233 230 222 202 217 223 226 226 228 225 228 233 235 234 237 236 237 236 236 233 227 224 226 228
254 258 265 273 283 286 283 282 285 289 292 292 291 289 286 285 288 292 295 302 291 258 242 250 255 258 263 259 261 261 261 260 260 258 261 261 258 258 261 264 188 186 197 219 217 232 240 251 250 247 244 246 247 245 244 243 240 241 242 242 240 240 241 234 225 220 218 221 224 231 232 234 233 237 240 238 236 240 239 234 231 224 216 217 227
252 252 254 262 267 271 275 278 282 284 286 287 288 287 285 285 287 288 292 293 297 299 304 282 231 215 241 262 253 246 250 257 255 256 257 256 255 245 211 227 210 208 217 234 235 240 247 248 250 250 249 247 245 246 248 246 246 245 245 246 244 239 238 233 233 235 232 226 224 227 228 229 233 237 243 245 240 234 235 232 229 222 222 224 227
251 256 257 253 253 260 266 272 276 279 280 280 283 289 291 288 282 284 285 285 284 287 292 291 298 291 268 267 266 258 248 241 247 253 258 258 254 181 214 234 235 234 225 208 221 232 238 247 249 249 248 250 250 247 244 246 245 245 244 247 246 242 240 239 235 234 231 236 231 226 226 227 228 234 240 241 238 238 238 228 227 222 221 225 223
246 250 250 249 251 256 263 268 271 274 278 281 282 281 282 283 283 283 282 282 285 288 287 295 300 292 280 272 269 255 245 240 242 238 237 238 210 193 230 230 237 238 242 241 232 234 234 236 237 243 247 247 249 248 246 247 247 248 244 241 246 246 244 243 246 242 238 239 233 225 222 227 228 227 233 236 236 237 238 238 231 232 228 224 226
247 252 252 253 253 253 259 264 270 275 272 269 269 271 276 279 284 284 284 283 283 285 288 289 286 285 288 289 280 269 136 125 145 173 194 192 182 215 224 235 237 244 244 244 243 246 245 245 244 243 245 247 249 250 250 249 249 249 248 248 246 249 242 238 232 236 241 241 244 237 226 225 226 226 219 233 238 233 235 238 234 222 212 220 224
245 240 239 251 263 266 269 268 268 269 272 273 273 274 277 283 285 286 285 285 283 282 282 281 281 282 282 282 279 266 230 235 222 251 223 199 193 202 218 230 238 241 243 244 246 246 249 252 251 251 250 247 247 248 249 250 246 246 247 248 247 249 247 246 244 244 245 252 260 256 249 239 217 219 231 230 232 237 239 234 231 234 226 223 221
249 254 227 202 228 237 251 256 259 262 266 273 275 277 279 278 281 284 287 287 286 286 284 283 281 283 292 291 274 284 281 283 285 289 284 269 231 203 214 227 240 245 246 246 245 247 248 251 251 250 249 247 247 248 246 247 248 246 246 243 245 250 266 323 302 300 285 284 300 302 288 270 244 228 231 237 236 232 238 238 227 228 234 234 228
247 247 254 236 252 261 256 257 259 260 264 266 271 276 277 278 281 285 285 283 284 282 280 280 283 284 288 291 280 259 261 270 274 273 277 285 278 228 212 226 234 247 252 252 250 250 251 252 251 248 251 252 253 251 251 251 251 250 252 253 250 246 217 178 219 228 210 226 222 217 221 229 234 226 229 228 227 231 241 246 237 222 230 236 241
248 252 250 245 233 244 250 253 255 258 258 264 268 272 275 276 279 279 279 281 281 283 283 281 281 285 282 291 306 290 269 267 266 267 272 273 284 318 341 341 350 356 354 355 1 1 357 355 347 324 285 268 259 256 257 257 257 257 255 247 187 223 208 192 208 229 230 229 207 203 201 205 215 219 226 239 230 226 232 237 235 235 233 229 233
255 255 253 249 248 246 251 255 261 263 263 263 263 265 270 275 278 277 278 279 283 286 285 284 283 287 310 25 335 308 258 259 254 265 288 341 335 329 341 6 1 2 359 348 345 345 336 325 315 311 316 305 292 287 284 287 284 271 256 223 213 223 226 209 192 209 228 227 229 242 230 210 211 207 207 212 229 246 239 233 232 233 232 229 226
254 252 248 250 252 255 253 256 256 258 259 262 266 268 274 276 276 276 277 280 282 283 283 291 301 317 320 336 344 329 326 346 359 6 11 10 358 355 2 2 359 356 357 358 354 344 341 328 319 317 312 315 346 354 338 341 331 318 302 275 252 247 252 239 224 211 206 209 209 207 211 214 215 211 204 202 204 217 225 227 224 224 229 227 213
254 251 252 251 250 250 250 247 253 257 260 261 259 263 265 269 273 275 279 284 288 290 294 296 303 313 323 330 344 348 350 359 6 8 14 8 355 357 359 3 9 11 9 8 6 360 350 343 335 334 330 340 355 4 6 355 349 325 303 292 271 249 238 236 235 231 220 214 211 208 209 209 210 208 210 208 204 205 209 217 221 217 206 197 178
255 255 251 254 255 253 251 250 251 255 256 256 260 264 266 266 267 274 281 287 295 303 303 306 310 315 324 334 345 358 9 5 12 20 16 15 12 13 15 19 21 23 23 20 18 22 19 14 9 7 2 1 3 11 11 8 349 334 319 307 307 300 295 274 255 237 225 214 207 206 210 211 213 211 211 211 208 208 210 211 211 201 200 175 160
254 252 256 256 257 256 253 251 252 254 256 257 257 259 261 265 272 280 280 285 296 301 301 306 311 317 328 345 357 12 19 24 21 23 28 29 31 27 28 30 33 35 32 31 28 29 31 33 29 25 25 21 19 16 18 15 11 357 347 337 333 330 320 320 307 246 226 219 216 213 211 214 213 216 215 213 210 203 200 199 178 172 164 140 138
253 250 250 253 254 254 251 250 251 250 253 256 259 261 266 270 274 276 283 291 292 296 297 305 314 326 342 354 12 25 34 38 38 35 37 38 34 35 38 42 43 43 45 42 40 39 41 42 41 40 42 41 38 34 28 25 22 17 9 8 355 341 344 336 316 325 313 282 239 231 217 201 207 211 206 204 196 179 175 156 147 126 120 121 127
253 254 253 251 248 250 250 252 252 259 263 265 259 255 257 266 274 281 287 297 300 304 307 317 331 347 2 21 28 35 39 45 46 49 48 47 44 39 40 44 49 54 55 54 48 48 49 50 51 52 52 52 50 46 43 40 40 38 36 29 20 21 20 16 13 7 13 18 34 35 37 33 35 26 31 68 100 106 86 75 77 91 97 104 119
261 261 256 254 249 251 254 258 263 262 264 261 266 265 267 266 278 304 312 319 321 331 348 8 21 19 27 34 41 44 49 51 54 57 56 56 54 55 54 54 58 60 62 61 60 59 61 62 61 62 61 59 57 57 56 54 51 45 40 40 43 41 38 35 29 17 21 45 45 71 73 76 67 64 52 46 44 54 60 63 67 68 71 72 71
264 260 257 256 260 259 260 260 258 254 257 260 262 268 268 267 285 359 27 16 11 6 11 31 41 49 56 59 65 67 66 69 68 66 66 64 66 68 74 73 72 75 76 77 76 74 73 72 72 73 71 70 67 63 55 54 49 48 53 52 50 50 48 47 45 32 22 15 34 48 83 86 89 79 76 73 75 68 60 55 55 61 68 68 67